TimePDT,TemperatureF,Dew PointF,Humidity,Sea Level PressureIn,VisibilityMPH,Wind Direction,Wind SpeedMPH,Gust SpeedMPH,PrecipitationIn,Events,Conditions,WindDirDegrees,DateUTC
12:53 AM,84.0,44.1,25,29.61,10.0,NW,5.8,-,N/A,,Clear,310,2013-07-05 07:53:00
1:53 AM,81.0,44.1,27,29.61,10.0,WNW,5.8,-,N/A,,Clear,300,2013-07-05 08:53:00
2:53 AM,81.0,45.0,28,29.60,10.0,NW,6.9,-,N/A,,Clear,310,2013-07-05 09:53:00
3:53 AM,82.0,45.0,27,29.60,10.0,NW,4.6,-,N/A,,Clear,320,2013-07-05 10:53:00
4:53 AM,81.0,44.1,27,29.60,10.0,NNW,5.8,-,N/A,,Clear,330,2013-07-05 11:53:00
5:53 AM,81.0,44.1,27,29.61,10.0,NNW,8.1,-,N/A,,Clear,330,2013-07-05 12:53:00
6:53 AM,82.0,46.0,28,29.63,10.0,North,6.9,-,N/A,,Clear,350,2013-07-05 13:53:00
7:53 AM,84.0,46.9,27,29.64,10.0,North,11.5,-,N/A,,Clear,350,2013-07-05 14:53:00
8:53 AM,87.1,48.0,26,29.65,10.0,North,12.7,18.4,N/A,,Clear,350,2013-07-05 15:53:00
9:53 AM,89.1,48.0,24,29.65,10.0,NNW,9.2,-,N/A,,Clear,340,2013-07-05 16:53:00
10:53 AM,91.9,48.0,22,29.65,10.0,NNW,8.1,-,N/A,,Clear,330,2013-07-05 17:53:00
11:53 AM,95.0,50.0,22,29.64,10.0,NNW,6.9,-,N/A,,Clear,340,2013-07-05 18:53:00
12:53 PM,98.1,50.0,20,29.63,10.0,Variable,6.9,-,N/A,,Clear,0,2013-07-05 19:53:00
1:53 PM,99.0,48.0,18,29.62,10.0,SSW,10.4,-,N/A,,Clear,210,2013-07-05 20:53:00
2:53 PM,100.0,46.9,16,29.61,10.0,SSW,9.2,17.3,N/A,,Clear,200,2013-07-05 21:53:00
3:53 PM,99.0,39.9,13,29.60,10.0,South,10.4,17.3,N/A,,Clear,190,2013-07-05 22:53:00
4:53 PM,98.1,41.0,14,29.59,10.0,SSW,13.8,-,N/A,,Clear,210,2013-07-05 23:53:00
5:53 PM,98.1,39.0,13,29.58,10.0,South,12.7,-,N/A,,Clear,190,2013-07-06 00:53:00
6:53 PM,95.0,37.9,14,29.58,10.0,South,13.8,-,N/A,,Clear,180,2013-07-06 01:53:00
7:53 PM,91.0,46.0,21,29.60,10.0,South,11.5,-,N/A,,Clear,170,2013-07-06 02:53:00
8:53 PM,84.9,52.0,32,29.62,10.0,SE,4.6,-,N/A,,Clear,140,2013-07-06 03:53:00
9:53 PM,82.0,52.0,35,29.65,10.0,Calm,Calm,-,N/A,,Clear,0,2013-07-06 04:53:00
10:53 PM,80.1,53.1,39,29.67,10.0,Calm,Calm,-,N/A,,Clear,0,2013-07-06 05:53:00
11:53 PM,78.1,54.0,43,29.68,10.0,Calm,Calm,-,N/A,,Clear,0,2013-07-06 06:53:00